Regional Weather Roundup
Issued by NWS Cleveland, OH

Home | Current Version | Previous Version | Graphics & Text | Print | Product List | Glossary On
Versions: 1 2 3 4 5 6 7 8 9 10 11 12 13 14 15 16 17 18 19 20 21 22 23 24 25 26 27 28 29 30 31 32 33 34 35 36 37 38 39 40 41 42 43 44 45 46 47 48 49 50
000
ASUS41 KCLE 030612
RWRCLE
OHIO REGIONAL WEATHER ROUNDUP
NATIONAL WEATHER SERVICE WILMINGTON, OH
200 AM EDT TUE MAY 03 2016

NOTE: "FAIR" INDICATES FEW OR NO CLOUDS BELOW 12,000 FEET WITH NO
SIGNIFICANT WEATHER AND/OR OBSTRUCTIONS TO VISIBILITY.

OHZ001>008-015>018-024>027-034-035-043-044-030700-
   NORTHWEST OHIO

CITY           SKY/WX    TMP DP  RH WIND       PRES   REMARKS
DEFIANCE       CLOUDY    49  47  93 CALM      29.97F
FINDLAY        CLOUDY    49  43  80 N5        29.95F
TOLEDO EXPRESS CLOUDY    48  45  89 CALM      29.96F
TOLEDO EXEC    CLOUDY    49  45  86 CALM      29.97F
LIMA           CLOUDY    48  45  89 N3        29.95F
$$

OHZ009>014-019>023-028>033-038-089-030700-
   NORTHEAST OHIO

CITY           SKY/WX    TMP DP  RH WIND       PRES   REMARKS
CLE-HOPKINS    MOCLDY    45  42  89 CALM      29.98S FOG
CLE-LAKEFRONT  CLOUDY    47  43  86 CALM      29.95F
CUY CO. ARPT   NOT AVBL
LORAIN-ELYRIA  CLOUDY    44  41  89 CALM      29.96F
ASHTABULA      FOG       40  40 100 CALM      29.95F VSB 1/4
AKRON-CANTON   FAIR      42  40  92 N6        29.93F
WOOSTER        CLOUDY    43  41  93 N6        29.94F
MANSFIELD      CLOUDY    43  42  97 N3        29.94F
YOUNGSTOWN     FAIR      39  38  96 NW6       29.93S
$$

OHZ042-051>053-060>062-070>072-077>081-030700-
  SOUTHWEST OHIO

CITY           SKY/WX    TMP DP  RH WIND       PRES   REMARKS
CINC-COVINGTON CLOUDY    55  52  89 NW3       29.92S
CINC-LUNKEN    FAIR      54  51  90 NE5       29.92F
HAMILTON       CLOUDY    54  51  90 N3        29.93F
DAYTON         CLOUDY    50  45  83 NE8       29.94F
WRIGHT-PAT AFB NOT AVBL
DAYTON GENERAL CLOUDY    52  46  80 NE7       29.92F
WILMINGTON     CLOUDY    51  48  89 NE8       29.91F
$$

OHZ036-037-039>041-045>050-054>059-063>069-073>076-082>088-030700-
  CENTRAL AND SOUTHEAST OHIO

CITY           SKY/WX    TMP DP  RH WIND       PRES   REMARKS
COLUMBUS       CLOUDY    49  45  86 NE6       29.92F
OSU AIRPORT    CLOUDY    50  45  83 N5        29.92F
BOLTON FIELD   CLOUDY    51  47  86 NE5       29.92F
RICKENBACK AFB CLOUDY    50  46  83 NE6       29.92F
NEWARK         CLOUDY    51  44  77 N6        29.92F
MARION         CLOUDY    46  43  89 N7        29.94F
LANCASTER      CLOUDY    51  47  86 NE7       29.92F
ZANESVILLE     CLOUDY    51  46  83 N5        29.91F
NEW PHILLY     CLOUDY    49  43  80 N5        29.93F
$$




USA.gov is the U.S. government's official web portal to all federal, state and local government web resources and services.